TimeEST,TemperatureF,Dew PointF,Humidity,Sea Level PressureIn,VisibilityMPH,Wind Direction,Wind SpeedMPH,Gust SpeedMPH,PrecipitationIn,Events,Conditions,WindDirDegrees,DateUTC
12:15 AM,12.2,3.2,67,30.12,10.0,SSW,5.8,-,N/A,,Clear,200,2013-01-03 05:15:00
12:34 AM,10.4,3.2,73,30.12,10.0,SSW,5.8,-,N/A,,Clear,210,2013-01-03 05:34:00
12:54 AM,10.4,3.2,73,30.12,10.0,SSW,5.8,-,N/A,,Clear,200,2013-01-03 05:54:00
1:15 AM,10.4,3.2,73,30.12,10.0,SSW,3.5,-,N/A,,Clear,200,2013-01-03 06:15:00
1:35 AM,10.4,3.2,73,30.11,10.0,SSW,5.8,-,N/A,,Clear,200,2013-01-03 06:35:00
1:54 AM,12.2,3.2,67,30.11,10.0,SSW,6.9,-,N/A,,Clear,200,2013-01-03 06:54:00
2:15 AM,12.2,3.2,67,30.10,10.0,SSW,8.1,-,N/A,,Clear,210,2013-01-03 07:15:00
2:34 AM,12.2,5.0,73,30.10,10.0,SSW,8.1,-,N/A,,Clear,210,2013-01-03 07:34:00
2:54 AM,12.2,5.0,73,30.11,10.0,SW,8.1,-,N/A,,Clear,220,2013-01-03 07:54:00
3:15 AM,15.8,6.8,68,30.10,10.0,SW,9.2,-,N/A,,Mostly Cloudy,220,2013-01-03 08:15:00
3:34 AM,15.8,6.8,68,30.10,10.0,SW,8.1,-,N/A,,Overcast,220,2013-01-03 08:34:00
3:55 AM,15.8,6.8,68,30.09,10.0,SW,9.2,-,N/A,,Overcast,220,2013-01-03 08:55:00
4:15 AM,17.6,8.6,68,30.09,10.0,SW,6.9,-,N/A,,Overcast,220,2013-01-03 09:15:00
4:35 AM,17.6,8.6,68,30.08,10.0,SW,8.1,-,N/A,,Overcast,220,2013-01-03 09:35:00
4:55 AM,17.6,8.6,68,30.08,10.0,SW,8.1,-,N/A,,Overcast,230,2013-01-03 09:55:00
5:14 AM,17.6,10.4,73,30.08,10.0,SW,8.1,-,N/A,,Overcast,230,2013-01-03 10:14:00
5:34 AM,17.6,10.4,73,30.08,10.0,SW,10.4,-,N/A,,Overcast,220,2013-01-03 10:34:00
5:55 AM,17.6,10.4,73,30.08,10.0,SW,8.1,-,N/A,,Overcast,230,2013-01-03 10:55:00
6:15 AM,17.6,10.4,73,30.08,10.0,WSW,9.2,-,N/A,Snow,Light Snow,240,2013-01-03 11:15:00
6:35 AM,17.6,12.2,79,30.08,10.0,SW,9.2,-,N/A,Snow,Light Snow,230,2013-01-03 11:35:00
6:54 AM,17.6,12.2,79,30.08,10.0,SW,8.1,-,N/A,,Overcast,230,2013-01-03 11:54:00
7:15 AM,17.6,12.2,79,30.08,10.0,SW,9.2,-,N/A,,Overcast,230,2013-01-03 12:15:00
7:35 AM,19.4,12.2,74,30.08,10.0,SW,6.9,-,N/A,,Overcast,220,2013-01-03 12:35:00
7:54 AM,19.4,14.0,80,30.08,10.0,SW,9.2,-,N/A,,Overcast,230,2013-01-03 12:54:00
8:14 AM,19.4,14.0,80,30.08,10.0,SW,6.9,-,N/A,,Mostly Cloudy,230,2013-01-03 13:14:00
8:35 AM,19.4,14.0,80,30.09,10.0,SW,8.1,-,N/A,,Mostly Cloudy,230,2013-01-03 13:35:00
8:55 AM,19.4,15.8,86,30.09,10.0,SW,9.2,-,N/A,,Mostly Cloudy,230,2013-01-03 13:55:00
9:15 AM,19.4,15.8,86,30.09,10.0,SW,10.4,-,N/A,,Overcast,230,2013-01-03 14:15:00
9:34 AM,19.4,15.8,86,30.10,10.0,SW,11.5,-,N/A,,Overcast,230,2013-01-03 14:34:00
9:55 AM,21.2,17.6,86,30.10,10.0,WSW,9.2,-,N/A,,Overcast,240,2013-01-03 14:55:00
10:15 AM,21.2,17.6,86,30.10,7.0,WSW,11.5,-,N/A,,Overcast,240,2013-01-03 15:15:00
10:34 AM,21.2,17.6,86,30.11,7.0,WSW,8.1,-,N/A,,Overcast,240,2013-01-03 15:34:00
10:55 AM,21.2,19.4,93,30.11,7.0,WSW,10.4,-,N/A,,Overcast,240,2013-01-03 15:55:00
11:15 AM,23.0,19.4,86,30.11,5.0,WSW,9.2,-,N/A,,Overcast,240,2013-01-03 16:15:00
11:35 AM,23.0,19.4,86,30.11,5.0,WSW,8.1,-,N/A,,Overcast,240,2013-01-03 16:35:00
11:54 AM,24.8,19.4,80,30.11,5.0,WSW,9.2,-,N/A,,Overcast,250,2013-01-03 16:54:00
12:14 PM,24.8,21.2,86,30.10,5.0,WSW,9.2,-,N/A,,Mostly Cloudy,240,2013-01-03 17:14:00
12:34 PM,24.8,21.2,86,30.09,5.0,SW,9.2,-,N/A,,Overcast,230,2013-01-03 17:34:00
12:55 PM,26.6,21.2,80,30.08,5.0,SW,9.2,-,N/A,,Overcast,230,2013-01-03 17:55:00
1:15 PM,26.6,21.2,80,30.08,5.0,WSW,11.5,17.3,N/A,,Overcast,240,2013-01-03 18:15:00
1:35 PM,26.6,23.0,86,30.08,5.0,WSW,11.5,-,N/A,,Mostly Cloudy,240,2013-01-03 18:35:00
1:55 PM,26.6,23.0,86,30.08,5.0,WSW,11.5,-,N/A,,Mostly Cloudy,240,2013-01-03 18:55:00
2:15 PM,26.6,23.0,86,30.09,5.0,WSW,9.2,-,N/A,,Overcast,250,2013-01-03 19:15:00
2:34 PM,26.6,23.0,86,30.09,7.0,WSW,10.4,-,N/A,,Overcast,240,2013-01-03 19:34:00
2:54 PM,26.6,24.8,93,30.09,7.0,WSW,11.5,-,N/A,,Mostly Cloudy,250,2013-01-03 19:54:00
3:15 PM,28.4,24.8,86,30.10,7.0,West,9.2,-,N/A,,Mostly Cloudy,260,2013-01-03 20:15:00
3:35 PM,28.4,24.8,86,30.11,7.0,WSW,10.4,-,N/A,,Overcast,250,2013-01-03 20:35:00
3:54 PM,28.4,24.8,86,30.12,7.0,West,12.7,17.3,N/A,,Overcast,260,2013-01-03 20:54:00
4:34 PM,28.4,23.0,80,30.13,10.0,West,13.8,20.7,N/A,,Overcast,270,2013-01-03 21:34:00
4:54 PM,28.4,21.2,74,30.13,10.0,West,11.5,19.6,N/A,,Overcast,270,2013-01-03 21:54:00
5:14 PM,28.4,21.2,74,30.14,10.0,West,11.5,18.4,N/A,,Overcast,260,2013-01-03 22:14:00
5:35 PM,28.4,21.2,74,30.14,10.0,West,11.5,17.3,N/A,,Overcast,260,2013-01-03 22:35:00
5:54 PM,28.4,23.0,80,30.15,10.0,West,12.7,20.7,N/A,,Overcast,260,2013-01-03 22:54:00
6:15 PM,28.4,23.0,80,30.16,10.0,WSW,13.8,-,N/A,,Overcast,250,2013-01-03 23:15:00
6:35 PM,26.6,23.0,86,30.17,10.0,West,10.4,-,N/A,,Overcast,260,2013-01-03 23:35:00
6:55 PM,26.6,23.0,86,30.17,10.0,West,10.4,-,N/A,,Overcast,260,2013-01-03 23:55:00
7:15 PM,26.6,21.2,80,30.17,10.0,West,8.1,-,N/A,,Overcast,260,2013-01-04 00:15:00
7:35 PM,26.6,21.2,80,30.18,10.0,WSW,9.2,16.1,N/A,,Overcast,250,2013-01-04 00:35:00
7:55 PM,26.6,21.2,80,30.18,10.0,West,11.5,-,N/A,,Overcast,260,2013-01-04 00:55:00
8:14 PM,26.6,21.2,80,30.18,10.0,WSW,11.5,17.3,N/A,,Overcast,250,2013-01-04 01:14:00
8:35 PM,26.6,21.2,80,30.18,10.0,West,10.4,-,N/A,,Overcast,260,2013-01-04 01:35:00
8:55 PM,26.6,21.2,80,30.18,10.0,West,10.4,-,N/A,,Overcast,260,2013-01-04 01:55:00
9:15 PM,26.6,21.2,80,30.18,10.0,WSW,9.2,16.1,N/A,,Overcast,250,2013-01-04 02:15:00
9:34 PM,26.6,21.2,80,30.18,10.0,WSW,6.9,-,N/A,,Overcast,250,2013-01-04 02:34:00
9:55 PM,26.6,21.2,80,30.18,10.0,WSW,11.5,-,N/A,,Overcast,250,2013-01-04 02:55:00
10:14 PM,26.6,21.2,80,30.18,10.0,WSW,10.4,-,N/A,,Overcast,250,2013-01-04 03:14:00
10:34 PM,26.6,21.2,80,30.18,10.0,WSW,9.2,16.1,N/A,,Overcast,250,2013-01-04 03:34:00
10:55 PM,26.6,21.2,80,30.18,10.0,WSW,10.4,-,N/A,,Overcast,250,2013-01-04 03:55:00
11:15 PM,26.6,21.2,80,30.18,10.0,WSW,11.5,-,N/A,,Overcast,250,2013-01-04 04:15:00
11:35 PM,26.6,21.2,80,30.18,10.0,WSW,10.4,-,N/A,,Overcast,240,2013-01-04 04:35:00
11:55 PM,26.6,21.2,80,30.17,10.0,WSW,11.5,18.4,N/A,,Overcast,250,2013-01-04 04:55:00